Погода в Сальске

Россия / Ростовская область     46°28′31″N   41°32′29″E
темп.,
°C
ветер,
м/с
пор.,
м/с
влажн.,
%
обл.,
%
осадки,
мм/ч
давл.,
гПа
погр.,
м
1 марта, пн
пн100:00+2з228498 0.1 102130
03:00+2з238999 0.1 1021105
06:00+1зюз369597 0.1 1022242
09:00+2зюз359399 0.1 1024349
12:00+4з4583100 0.1 1025622
15:00+5зсз4573100 0.4 1025814
18:00+3ссз238398 0.2 1026116
21:00+1с229598 0.2 102758
2 марта, вт
вт200:00+2сз128787 0.0 102888
03:00+1зсз238393 0.0 102997
06:000з128889 0.0 102836
09:00+2зюз457688 0.0 1028684
12:00+4зюз686982 0.0 1026929
15:00+6з8115756 0.0 10231406
18:00+4зюз7136748 0.0 1021899
21:00+2з8167074 0.0 1020835
3 марта, ср
ср300:00+2зюз101775100 0.0 1018899
03:00+2зюз111894100 0.1 10161020
06:00+2з111796100 0.4 10141046
09:00+1зсз81296100 2.3 1016707
12:00+2сз6986100 0.3 1018783
15:00+5сз7105895 0.3 10191520
18:00+3сз61070100 0.1 1021951
21:00+1зсз4117589 0.1 1024348
4 марта, чт
чт400:00−1зсз37810 0.0 1025158
03:00−1з35800 0.0 1026123
06:00−1зюз37800 0.0 1026167
09:00+2зюз69630 0.0 1026683
12:00+5зюз67530 0.0 1025979
15:00+7зюз67520 0.0 10231124
18:00+3юз46710 0.0 1021130
21:00+1юз478010 0.0 1021141
5 марта, пт
пт500:00+1юз47820 0.0 1021136
03:000юз410820 0.0 1020246
06:000юз410810 0.0 1020274
09:00+4юз6107511 0.0 1020643
12:00+8юз796316 0.0 10191093
15:00+9зюз69558 0.0 10181184
18:00+6юз35690 0.0 101780
21:00+4юз49780 0.0 1018186